Location: Burtsch�tz
(51.0528°N, 12.1764°E)
Time: 07:27:21
(UTC+00:00)

Cosmos 1812 Rocket - Pass Details

Date: 29 October 2020
Orbit: 605 x 632 km, 82.5° (Epoch: 01 December)

Event Time Altitude Azimuth Distance (km) Brightness Sun altitude
Rises 17:21:55 0° 166° (SSE) 2,889 6.9 -14.9°
Reaches altitude 10° 17:24:15 10° 157° (SSE) 1,984 6.0 -15.2°
Maximum altitude 17:28:16 36° 91° (E) 986 4.0 -15.9°
Drops below altitude 10° 17:32:17 10° 25° (NNE) 1,983 5.9 -16.5°
Sets 17:34:37 0° 17° (NNE) 2,889 6.8 -16.9°
